Location: Hillern
(53.0557°N, 9.8577°E)
Time: 11:02:50
(UTC+00:00)

NOSS 2-3 (C) - Pass Details

Date: 19 May 2025
Orbit: 469 x 1713 km, 63.3° (Epoch: 23 June)

Event Time Altitude Azimuth Distance (km) Brightness Sun altitude
Rises 20:12:17 0° 245° (WSW) 2,507 6.9 -6.8°
Reaches altitude 10° 20:14:21 10° 252° (WSW) 1,657 6.1 -7.0°
Maximum altitude 20:17:48 46° 327° (NNW) 707 4.5 -7.3°
Drops below altitude 10° 20:21:54 10° 42° (NE) 1,953 6.2 -7.8°
Sets 20:24:31 0° 49° (NE) 3,024 7.1 -8.0°
